| time (UTC) | temp C | wind direction | speed KPH | gust KPH | rain 1hr cm | rain 24hr cm | rain mn cm | humidity % | barometer mb |
| 20260507151554 | 20 | 11 | 0.0 | 0.0 | 0.00 | 0.30 | 0.30 | 94 | 1008.1 |
| 20260507151051 | 20 | 249 | 0.0 | 0.0 | 0.00 | 0.30 | 0.30 | 94 | 1008.0 |
| 20260507150549 | 20 | 354 | 0.0 | 0.0 | 0.00 | 0.30 | 0.30 | 94 | 1008.0 |
| 20260507150045 | 20 | 297 | 0.0 | 0.0 | 0.00 | 0.30 | 0.30 | 94 | 1007.7 |
| 20260507145540 | 20 | 21 | 0.0 | 0.0 | 0.00 | 0.30 | 0.30 | 94 | 1007.8 |
| 20260507145038 | 20 | 52 | 0.0 | 0.0 | 0.00 | 0.30 | 0.30 | 94 | 1007.7 |
| 20260507144534 | 20 | 314 | 0.0 | 0.0 | 0.00 | 0.30 | 0.30 | 94 | 1007.9 |
| 20260507144032 | 20 | 319 | 0.0 | 0.0 | 0.00 | 0.30 | 0.30 | 94 | 1007.9 |
| 20260507143529 | 20 | 216 | 0.0 | 0.0 | 0.00 | 0.30 | 0.30 | 94 | 1007.9 |
| 20260507143026 | 20 | 314 | 0.0 | 0.0 | 0.00 | 0.30 | 0.30 | 94 | 1007.8 |
| 20260507142522 | 20 | 321 | 0.0 | 0.0 | 0.00 | 0.30 | 0.30 | 94 | 1007.7 |
| 20260507142019 | 20 | 328 | 0.0 | 0.0 | 0.00 | 0.30 | 0.30 | 95 | 1008.0 |
| 20260507141515 | 20 | 288 | 0.0 | 0.0 | 0.00 | 0.30 | 0.30 | 95 | 1008.3 |
| 20260507141012 | 20 | 111 | 0.0 | 0.0 | 0.00 | 0.30 | 0.30 | 94 | 1008.1 |
| 20260507140508 | 20 | 72 | 0.0 | 0.0 | 0.00 | 0.30 | 0.30 | 95 | 1008.0 |
| 20260507140006 | 20 | 275 | 0.0 | 0.0 | 0.00 | 0.30 | 0.30 | 95 | 1008.3 |
| 20260507135503 | 20 | 310 | 0.0 | 0.0 | 0.00 | 0.30 | 0.30 | 95 | 1008.3 |
| 20260507135000 | 20 | 252 | 0.0 | 0.0 | 0.00 | 0.30 | 0.30 | 95 | 1008.5 |
| 20260507134456 | 20 | 141 | 0.0 | 1.6 | 0.00 | 0.30 | 0.30 | 95 | 1008.2 |
| 20260507133952 | 20 | 315 | 0.0 | 0.0 | 0.00 | 0.30 | 0.30 | 95 | 1008.5 |
| 20260507133448 | 20 | 309 | 0.0 | 0.0 | 0.00 | 0.30 | 0.30 | 95 | 1008.4 |
| 20260507132947 | 20 | 269 | 0.0 | 0.0 | 0.00 | 0.30 | 0.30 | 95 | 1008.5 |
| 20260507132442 | 20 | 239 | 0.0 | 0.0 | 0.00 | 0.30 | 0.30 | 95 | 1008.4 |
| 20260507131939 | 20 | 216 | 0.0 | 1.6 | 0.00 | 0.30 | 0.30 | 95 | 1008.4 |
| 20260507131437 | 20 | 198 | 1.6 | 1.6 | 0.00 | 0.30 | 0.30 | 95 | 1008.4 |
| 20260507130934 | 20 | 193 | 0.0 | 0.0 | 0.00 | 0.30 | 0.30 | 95 | 1008.5 |
| 20260507130431 | 20 | 239 | 0.0 | 0.0 | 0.00 | 0.30 | 0.30 | 95 | 1009.0 |
| 20260507125929 | 20 | 207 | 0.0 | 0.0 | 0.00 | 0.30 | 0.30 | 95 | 1008.7 |
| 20260507125427 | 20 | 188 | 1.6 | 1.6 | 0.00 | 0.30 | 0.30 | 95 | 1008.7 |
| 20260507124924 | 20 | 193 | 1.6 | 1.6 | 0.18 | 0.30 | 0.30 | 95 | 1008.7 |
| 20260507124420 | 20 | 4 | 0.0 | 0.0 | 0.18 | 0.30 | 0.30 | 95 | 1008.8 |
| 20260507123919 | 20 | 213 | 0.0 | 0.0 | 0.00 | 0.28 | 0.28 | 95 | 1008.8 |
| 20260507123418 | 20 | 192 | 0.0 | 0.0 | 0.00 | 0.28 | 0.28 | 95 | 1008.9 |
| 20260507122912 | 20 | 122 | 0.0 | 0.0 | 0.00 | 0.28 | 0.28 | 95 | 1009.1 |
| 20260507122407 | 20 | 189 | 0.0 | 1.6 | 0.00 | 0.28 | 0.28 | 95 | 1009.2 |
| 20260507121904 | 20 | 221 | 0.0 | 0.0 | 0.00 | 0.28 | 0.28 | 95 | 1009.0 |
| 20260507121359 | 19 | 213 | 0.0 | 0.0 | 0.00 | 0.28 | 0.28 | 95 | 1009.2 |
| 20260507120856 | 19 | 193 | 1.6 | 1.6 | 0.00 | 0.28 | 0.28 | 95 | 1009.2 |
| 20260507120352 | 19 | 198 | 0.0 | 0.0 | 0.00 | 0.28 | 0.28 | 95 | 1009.3 |
| 20260507115848 | 19 | 237 | 0.0 | 0.0 | 0.00 | 0.28 | 0.28 | 95 | 1009.4 |
| 20260507115344 | 19 | 294 | 0.0 | 0.0 | 0.00 | 0.28 | 0.28 | 95 | 1009.4 |
| 20260507114840 | 19 | 237 | 0.0 | 0.0 | 0.00 | 0.28 | 0.28 | 95 | 1009.5 |
| 20260507114337 | 19 | 178 | 0.0 | 1.6 | 0.00 | 0.28 | 0.28 | 95 | 1009.2 |
| 20260507113835 | 19 | 204 | 0.0 | 0.0 | 0.00 | 0.28 | 0.28 | 95 | 1009.3 |
| 20260507113332 | 19 | 231 | 1.6 | 1.6 | 0.00 | 0.28 | 0.28 | 95 | 1009.4 |
| 20260507112829 | 19 | 178 | 0.0 | 0.0 | 0.13 | 0.28 | 0.28 | 95 | 1009.3 |
| 20260507112326 | 19 | 253 | 0.0 | 0.0 | 0.13 | 0.28 | 0.28 | 95 | 1009.4 |
| 20260507111824 | 19 | 247 | 0.0 | 1.6 | 0.00 | 0.25 | 0.25 | 95 | 1009.1 |
| 20260507111320 | 19 | 329 | 0.0 | 0.0 | 0.00 | 0.25 | 0.25 | 95 | 1009.4 |
| 20260507110816 | 19 | 339 | 0.0 | 0.0 | 0.00 | 0.25 | 0.25 | 95 | 1009.4 |
| 20260507110313 | 19 | 277 | 0.0 | 0.0 | 0.00 | 0.25 | 0.25 | 95 | 1009.1 |
| 20260507105810 | 19 | 203 | 3.2 | 3.2 | 0.00 | 0.25 | 0.25 | 95 | 1008.9 |
| 20260507105307 | 19 | 315 | 0.0 | 1.6 | 0.18 | 0.25 | 0.25 | 95 | 1009.2 |
| 20260507104803 | 19 | 190 | 0.0 | 0.0 | 0.18 | 0.25 | 0.25 | 95 | 1009.4 |
| 20260507104259 | 19 | 278 | 0.0 | 1.6 | 0.13 | 0.23 | 0.23 | 95 | 1009.6 |
| 20260507103756 | 19 | 156 | 3.2 | 4.8 | 0.30 | 0.23 | 0.23 | 95 | 1009.1 |
| 20260507103252 | 19 | 158 | 0.0 | 1.6 | 0.18 | 0.20 | 0.20 | 95 | 1008.9 |
| 20260507102748 | 19 | 249 | 0.0 | 0.0 | 0.00 | 0.18 | 0.18 | 95 | 1008.9 |
| 20260507102245 | 19 | 158 | 0.0 | 0.0 | 0.00 | 0.18 | 0.18 | 95 | 1008.9 |
| 20260507101741 | 19 | 282 | 0.0 | 0.0 | 0.00 | 0.18 | 0.18 | 95 | 1009.1 |
| 20260507101231 | 19 | 269 | 0.0 | 0.0 | 0.00 | 0.18 | 0.18 | 95 | 1009.0 |
| 20260507100728 | 19 | 228 | 0.0 | 0.0 | 0.00 | 0.18 | 0.18 | 95 | 1008.9 |
| 20260507100227 | 19 | 326 | 0.0 | 0.0 | 0.00 | 0.18 | 0.18 | 94 | 1009.0 |
| 20260507095724 | 18 | 277 | 0.0 | 0.0 | 0.00 | 0.18 | 0.18 | 94 | 1008.9 |
| 20260507095220 | 18 | 301 | 0.0 | 0.0 | 0.00 | 0.18 | 0.18 | 94 | 1008.8 |
| 20260507094717 | 18 | 221 | 0.0 | 1.6 | 0.00 | 0.18 | 0.18 | 94 | 1008.9 |
| 20260507094215 | 18 | 269 | 0.0 | 0.0 | 0.00 | 0.18 | 0.18 | 94 | 1008.8 |
| 20260507093711 | 18 | 299 | 0.0 | 0.0 | 0.00 | 0.18 | 0.18 | 94 | 1008.7 |
| 20260507093210 | 18 | 212 | 0.0 | 0.0 | 0.00 | 0.18 | 0.18 | 94 | 1008.8 |
| 20260507092707 | 18 | 196 | 0.0 | 0.0 | 0.00 | 0.18 | 0.18 | 94 | 1008.8 |
| 20260507092203 | 18 | 224 | 0.0 | 0.0 | 0.00 | 0.18 | 0.18 | 94 | 1009.0 |
| 20260507091659 | 18 | 227 | 0.0 | 0.0 | 0.00 | 0.18 | 0.18 | 94 | 1009.0 |
| 20260507091156 | 18 | 268 | 0.0 | 0.0 | 0.00 | 0.18 | 0.18 | 94 | 1009.0 |
| 20260507090652 | 19 | 266 | 0.0 | 0.0 | 0.00 | 0.18 | 0.18 | 94 | 1008.8 |
| 20260507090149 | 19 | 264 | 0.0 | 0.0 | 0.00 | 0.18 | 0.18 | 94 | 1008.8 |
| 20260507085646 | 19 | 202 | 0.0 | 0.0 | 0.00 | 0.18 | 0.18 | 94 | 1008.8 |
| 20260507085142 | 19 | 186 | 0.0 | 1.6 | 0.00 | 0.18 | 0.18 | 94 | 1008.5 |
| 20260507084640 | 19 | 193 | 0.0 | 0.0 | 0.00 | 0.18 | 0.18 | 94 | 1008.8 |
| 20260507084136 | 19 | 45 | 0.0 | 0.0 | 0.00 | 0.18 | 0.18 | 93 | 1009.0 |
| 20260507083633 | 19 | 330 | 0.0 | 0.0 | 0.00 | 0.18 | 0.18 | 93 | 1009.1 |
| 20260507083130 | 19 | 299 | 0.0 | 0.0 | 0.00 | 0.18 | 0.18 | 93 | 1009.1 |
| 20260507082625 | 19 | 290 | 0.0 | 0.0 | 0.00 | 0.18 | 0.18 | 93 | 1009.4 |
| 20260507082122 | 19 | 53 | 0.0 | 0.0 | 0.00 | 0.18 | 0.18 | 93 | 1009.5 |
| 20260507081619 | 19 | 260 | 0.0 | 0.0 | 0.00 | 0.18 | 0.18 | 93 | 1009.5 |
| 20260507081115 | 19 | 8 | 0.0 | 0.0 | 0.00 | 0.18 | 0.18 | 93 | 1009.8 |
| 20260507080612 | 19 | 255 | 1.6 | 3.2 | 0.00 | 0.18 | 0.18 | 93 | 1009.8 |
| 20260507080108 | 19 | 199 | 1.6 | 1.6 | 0.13 | 0.18 | 0.18 | 93 | 1010.1 |
| 20260507075603 | 19 | 277 | 0.0 | 0.0 | 0.13 | 0.18 | 0.18 | 93 | 1009.9 |
| 20260507075100 | 19 | 288 | 1.6 | 1.6 | 0.00 | 0.15 | 0.15 | 92 | 1009.8 |
| 20260507074557 | 19 | 278 | 1.6 | 1.6 | 0.00 | 0.15 | 0.15 | 92 | 1009.9 |
| 20260507074055 | 19 | 216 | 1.6 | 1.6 | 0.18 | 0.15 | 0.15 | 92 | 1009.4 |
| 20260507073550 | 19 | 196 | 1.6 | 3.2 | 0.18 | 0.15 | 0.15 | 92 | 1009.5 |
| 20260507073047 | 19 | 305 | 1.6 | 1.6 | 0.00 | 0.13 | 0.13 | 91 | 1009.8 |
| 20260507072545 | 19 | 297 | 0.0 | 0.0 | 0.00 | 0.13 | 0.13 | 90 | 1009.6 |
| 20260507072042 | 20 | 336 | 1.6 | 1.6 | 0.00 | 0.13 | 0.13 | 89 | 1009.5 |
| 20260507071539 | 20 | 141 | 1.6 | 3.2 | 0.13 | 0.13 | 0.13 | 89 | 1009.3 |
| 20260507071036 | 20 | 247 | 1.6 | 3.2 | 0.30 | 0.13 | 0.13 | 88 | 1009.3 |
| 20260507070533 | 20 | 233 | 0.0 | 1.6 | 0.30 | 0.10 | 0.10 | 88 | 1009.4 |
| 20260507070030 | 20 | 209 | 1.6 | 3.2 | 0.43 | 0.08 | 0.08 | 87 | 1009.4 |
| 20260507065526 | 20 | 159 | 4.8 | 8.0 | 0.30 | 0.05 | 0.05 | 86 | 1009.6 |
| 20260507065023 | 20 | 175 | 4.8 | 8.0 | 0.00 | 0.00 | 0.00 | 85 | 1010.0 |
| 20260507064521 | 20 | 233 | 0.0 | 0.0 | 0.00 | 0.00 | 0.00 | 85 | 1010.1 |
| 20260507064020 | 20 | 193 | 1.6 | 1.6 | 0.00 | 0.00 | 0.00 | 85 | 1010.2 |
| 20260507063516 | 20 | 191 | 0.0 | 0.0 | 0.00 | 0.00 | 0.00 | 86 | 1010.2 |
| 20260507063014 | 20 | 206 | 0.0 | 1.6 | 0.00 | 0.00 | 0.00 | 86 | 1010.0 |
| 20260507062510 | 20 | 173 | 0.0 | 1.6 | 0.00 | 0.00 | 0.00 | 86 | 1010.1 |
| 20260507062008 | 20 | 195 | 0.0 | 0.0 | 0.00 | 0.00 | 0.00 | 87 | 1010.4 |
| 20260507061505 | 20 | 240 | 0.0 | 0.0 | 0.00 | 0.00 | 0.00 | 87 | 1010.5 |
| 20260507061004 | 20 | 271 | 0.0 | 0.0 | 0.00 | 0.00 | 0.00 | 87 | 1010.6 |
| 20260507060501 | 20 | 248 | 0.0 | 0.0 | 0.00 | 0.00 | 0.00 | 86 | 1010.7 |
| 20260507055956 | 20 | 250 | 0.0 | 0.0 | 0.00 | 0.00 | 0.00 | 86 | 1010.5 |
| 20260507055452 | 20 | 249 | 0.0 | 0.0 | 0.00 | 0.00 | 0.00 | 85 | 1010.5 |
| 20260507054949 | 20 | 259 | 0.0 | 0.0 | 0.00 | 0.00 | 0.00 | 85 | 1010.6 |
| 20260507054445 | 20 | 327 | 0.0 | 0.0 | 0.00 | 0.00 | 0.00 | 85 | 1010.5 |
| 20260507053942 | 20 | 271 | 0.0 | 0.0 | 0.00 | 0.00 | 0.00 | 84 | 1010.5 |
| 20260507053440 | 20 | 292 | 0.0 | 0.0 | 0.00 | 0.00 | 0.00 | 84 | 1010.5 |
| 20260507052938 | 20 | 288 | 0.0 | 0.0 | 0.00 | 0.00 | 0.00 | 84 | 1010.5 |
| 20260507052436 | 20 | 185 | 0.0 | 0.0 | 0.00 | 0.00 | 0.00 | 84 | 1010.5 |
| 20260507051932 | 20 | 231 | 0.0 | 0.0 | 0.00 | 0.00 | 0.00 | 83 | 1010.5 |
| 20260507051430 | 20 | 182 | 0.0 | 0.0 | 0.00 | 0.00 | 0.00 | 83 | 1010.3 |
| 20260507050927 | 20 | 172 | 1.6 | 1.6 | 0.00 | 0.00 | 0.00 | 83 | 1010.5 |
| 20260507050423 | 20 | 199 | 0.0 | 0.0 | 0.00 | 0.00 | 0.00 | 83 | 1010.7 |
| 20260507045920 | 21 | 209 | 0.0 | 0.0 | 0.00 | 0.00 | 0.00 | 83 | 1010.6 |
| 20260507045416 | 20 | 88 | 0.0 | 0.0 | 0.00 | 0.00 | 0.00 | 83 | 1010.6 |
| 20260507044914 | 20 | 226 | 0.0 | 0.0 | 0.00 | 0.00 | 0.00 | 83 | 1010.6 |
| 20260507044410 | 20 | 228 | 0.0 | 0.0 | 0.00 | 0.00 | 0.00 | 83 | 1010.5 |
| 20260507043907 | 20 | 229 | 0.0 | 0.0 | 0.00 | 0.00 | 0.00 | 83 | 1010.4 |
| 20260507043403 | 20 | 213 | 0.0 | 0.0 | 0.00 | 0.00 | 0.00 | 83 | 1010.6 |
| 20260507042900 | 20 | 233 | 0.0 | 0.0 | 0.00 | 0.00 | 0.00 | 82 | 1010.5 |
| 20260507042356 | 20 | 234 | 0.0 | 0.0 | 0.00 | 0.00 | 0.00 | 82 | 1010.1 |
| 20260507041852 | 20 | 230 | 0.0 | 0.0 | 0.00 | 0.00 | 0.00 | 82 | 1010.6 |
| 20260507041349 | 20 | 224 | 0.0 | 0.0 | 0.00 | 0.00 | 0.00 | 82 | 1010.6 |
| 20260507040847 | 20 | 209 | 0.0 | 0.0 | 0.00 | 0.00 | 0.00 | 82 | 1010.6 |
| 20260507040342 | 20 | 203 | 0.0 | 0.0 | 0.00 | 0.00 | 0.00 | 82 | 1010.6 |
| 20260507035838 | 20 | 232 | 0.0 | 0.0 | 0.00 | 0.00 | 0.00 | 81 | 1010.3 |
| 20260507035334 | 20 | 225 | 0.0 | 1.6 | 0.00 | 0.00 | 0.00 | 82 | 1010.5 |
| 20260507034832 | 20 | 236 | 0.0 | 0.0 | 0.00 | 0.00 | 0.00 | 81 | 1010.9 |
| 20260507034328 | 20 | 239 | 0.0 | 0.0 | 0.00 | 0.00 | 0.00 | 80 | 1010.7 |
| 20260507033826 | 20 | 248 | 0.0 | 0.0 | 0.00 | 0.00 | 0.00 | 79 | 1010.8 |
| 20260507033324 | 21 | 256 | 0.0 | 0.0 | 0.00 | 0.00 | 0.00 | 80 | 1010.6 |
| 20260507032821 | 21 | 169 | 0.0 | 0.0 | 0.00 | 0.00 | 0.00 | 81 | 1010.6 |
| 20260507032317 | 21 | 211 | 0.0 | 1.6 | 0.00 | 0.00 | 0.00 | 81 | 1010.7 |
| 20260507031814 | 21 | 206 | 0.0 | 1.6 | 0.00 | 0.00 | 0.00 | 80 | 1010.8 |
| 20260507031311 | 21 | 217 | 0.0 | 0.0 | 0.00 | 0.00 | 0.00 | 80 | 1010.8 |
| 20260507030807 | 21 | 198 | 1.6 | 3.2 | 0.00 | 0.00 | 0.00 | 80 | 1010.8 |
| 20260507030305 | 21 | 218 | 0.0 | 1.6 | 0.00 | 0.00 | 0.00 | 80 | 1010.6 |
| 20260507025801 | 20 | 209 | 0.0 | 0.0 | 0.00 | 0.00 | 0.00 | 80 | 1010.5 |
| 20260507025259 | 20 | 258 | 0.0 | 0.0 | 0.00 | 0.00 | 0.00 | 77 | 1010.7 |
| 20260507024757 | 21 | 260 | 0.0 | 0.0 | 0.00 | 0.00 | 0.00 | 76 | 1010.9 |
| 20260507024254 | 21 | 227 | 0.0 | 0.0 | 0.00 | 0.00 | 0.00 | 78 | 1010.5 |
| 20260507023749 | 21 | 264 | 0.0 | 0.0 | 0.00 | 0.00 | 0.00 | 76 | 1010.4 |
| 20260507023246 | 21 | 247 | 0.0 | 1.6 | 0.00 | 0.00 | 0.00 | 76 | 1010.3 |
| 20260507022743 | 21 | 203 | 1.6 | 1.6 | 0.00 | 0.00 | 0.00 | 76 | 1010.6 |
| 20260507022239 | 21 | 214 | 3.2 | 3.2 | 0.00 | 0.00 | 0.00 | 76 | 1010.8 |
| 20260507021736 | 21 | 230 | 1.6 | 1.6 | 0.00 | 0.00 | 0.00 | 76 | 1010.6 |
| 20260507021231 | 21 | 193 | 1.6 | 1.6 | 0.00 | 0.00 | 0.00 | 76 | 1010.5 |
| 20260507020730 | 21 | 178 | 3.2 | 3.2 | 0.00 | 0.00 | 0.00 | 76 | 1010.6 |
| 20260507020226 | 21 | 172 | 0.0 | 0.0 | 0.00 | 0.00 | 0.00 | 76 | 1010.6 |
| 20260507015724 | 21 | 217 | 0.0 | 1.6 | 0.00 | 0.00 | 0.00 | 75 | 1010.3 |
| 20260507015221 | 21 | 176 | 0.0 | 1.6 | 0.00 | 0.00 | 0.00 | 75 | 1010.5 |
| 20260507014717 | 21 | 181 | 3.2 | 3.2 | 0.00 | 0.00 | 0.00 | 75 | 1010.7 |
| 20260507014214 | 21 | 176 | 0.0 | 0.0 | 0.00 | 0.00 | 0.00 | 75 | 1010.6 |
| 20260507013710 | 22 | 225 | 3.2 | 3.2 | 0.00 | 0.00 | 0.00 | 73 | 1010.7 |
| 20260507013208 | 22 | 212 | 1.6 | 3.2 | 0.00 | 0.00 | 0.00 | 73 | 1010.6 |
| 20260507012705 | 22 | 149 | 1.6 | 3.2 | 0.00 | 0.00 | 0.00 | 72 | 1010.6 |
| 20260507012201 | 22 | 207 | 1.6 | 1.6 | 0.00 | 0.00 | 0.00 | 72 | 1010.6 |
| 20260507011659 | 22 | 177 | 6.4 | 8.0 | 0.00 | 0.00 | 0.00 | 72 | 1010.7 |
| 20260507011155 | 22 | 216 | 3.2 | 3.2 | 0.00 | 0.00 | 0.00 | 71 | 1010.7 |
| 20260507010654 | 22 | 237 | 1.6 | 1.6 | 0.00 | 0.00 | 0.00 | 71 | 1010.4 |
| 20260507010150 | 22 | 205 | 4.8 | 8.0 | 0.00 | 0.00 | 0.00 | 70 | 1010.7 |
| 20260507005648 | 22 | 201 | 1.6 | 1.6 | 0.00 | 0.00 | 0.00 | 70 | 1010.6 |
| 20260507005144 | 22 | 220 | 1.6 | 1.6 | 0.00 | 0.00 | 0.00 | 71 | 1010.5 |
| 20260507004641 | 22 | 224 | 3.2 | 3.2 | 0.00 | 0.00 | 0.00 | 70 | 1010.4 |
| 20260507004139 | 22 | 220 | 3.2 | 4.8 | 0.00 | 0.00 | 0.00 | 69 | 1010.3 |
| 20260507003635 | 22 | 190 | 3.2 | 3.2 | 0.00 | 0.00 | 0.00 | 69 | 1010.2 |
| 20260507003130 | 23 | 206 | 3.2 | 4.8 | 0.00 | 0.00 | 0.00 | 69 | 1010.4 |
| 20260507002626 | 23 | 198 | 1.6 | 3.2 | 0.00 | 0.00 | 0.00 | 68 | 1010.3 |
| 20260507002122 | 23 | 205 | 1.6 | 3.2 | 0.00 | 0.00 | 0.00 | 68 | 1010.2 |
| 20260507001619 | 23 | 221 | 3.2 | 3.2 | 0.00 | 0.00 | 0.00 | 68 | 1010.2 |
| 20260507001117 | 23 | 195 | 8.0 | 11.3 | 0.00 | 0.00 | 0.00 | 70 | 1010.1 |
| 20260507000613 | 23 | 183 | 1.6 | 3.2 | 0.00 | 0.00 | 0.00 | 71 | 1009.9 |
| 20260507000108 | 23 | 212 | 6.4 | 11.3 | 0.00 | 0.00 | 0.00 | 71 | 1009.8 |
| 20260506235606 | 23 | 194 | 8.0 | 9.7 | 0.00 | 0.00 | 0.00 | 70 | 1010.0 |
| 20260506235106 | 23 | 237 | 3.2 | 4.8 | 0.00 | 0.00 | 0.00 | 70 | 1009.9 |
| 20260506234604 | 23 | 237 | 6.4 | 11.3 | 0.00 | 0.00 | 0.00 | 70 | 1009.9 |
| 20260506234101 | 23 | 211 | 4.8 | 4.8 | 0.00 | 0.00 | 0.00 | 71 | 1009.9 |
| 20260506233558 | 23 | 225 | 4.8 | 9.7 | 0.00 | 0.00 | 0.00 | 72 | 1009.9 |
| 20260506233054 | 23 | 198 | 4.8 | 8.0 | 0.00 | 0.00 | 0.00 | 71 | 1009.9 |
| 20260506232550 | 23 | 215 | 4.8 | 4.8 | 0.00 | 0.00 | 0.00 | 73 | 1009.6 |
| 20260506232046 | 23 | 185 | 4.8 | 9.7 | 0.00 | 0.00 | 0.00 | 73 | 1009.8 |
| 20260506231544 | 23 | 215 | 8.0 | 11.3 | 0.00 | 0.00 | 0.00 | 72 | 1009.5 |
| 20260506231042 | 24 | 227 | 3.2 | 3.2 | 0.00 | 0.00 | 0.00 | 73 | 1009.8 |
| 20260506230538 | 23 | 229 | 4.8 | 8.0 | 0.00 | 0.00 | 0.00 | 74 | 1009.6 |
| 20260506230035 | 23 | 201 | 4.8 | 4.8 | 0.00 | 0.00 | 0.00 | 74 | 1009.5 |
| 20260506225532 | 24 | 181 | 9.7 | 12.9 | 0.00 | 0.00 | 0.00 | 73 | 1009.3 |
| 20260506225028 | 23 | 192 | 8.0 | 11.3 | 0.00 | 0.00 | 0.00 | 74 | 1009.3 |
| 20260506224525 | 23 | 216 | 6.4 | 8.0 | 0.00 | 0.00 | 0.00 | 77 | 1009.4 |
| 20260506224022 | 23 | 179 | 4.8 | 4.8 | 0.00 | 0.00 | 0.00 | 78 | 1009.4 |
| 20260506223517 | 23 | 160 | 1.6 | 1.6 | 0.00 | 0.00 | 0.00 | 77 | 1009.4 |
| 20260506223014 | 23 | 169 | 6.4 | 8.0 | 0.00 | 0.00 | 0.00 | 75 | 1009.5 |
| 20260506222511 | 23 | 219 | 1.6 | 3.2 | 0.00 | 0.00 | 0.00 | 76 | 1009.3 |
| 20260506222008 | 24 | 207 | 1.6 | 3.2 | 0.00 | 0.00 | 0.00 | 76 | 1009.5 |
| 20260506221505 | 23 | 206 | 1.6 | 1.6 | 0.00 | 0.00 | 0.00 | 75 | 1009.4 |
| 20260506221003 | 23 | 250 | 1.6 | 3.2 | 0.00 | 0.00 | 0.00 | 75 | 1009.4 |
| 20260506220458 | 23 | 199 | 1.6 | 1.6 | 0.00 | 0.00 | 0.00 | 76 | 1009.6 |
| 20260506215954 | 23 | 189 | 6.4 | 8.0 | 0.00 | 0.00 | 0.00 | 76 | 1009.5 |
| 20260506215451 | 23 | 195 | 1.6 | 3.2 | 0.00 | 0.00 | 0.00 | 77 | 1009.6 |
| 20260506214947 | 23 | 222 | 1.6 | 1.6 | 0.00 | 0.00 | 0.00 | 76 | 1009.5 |
| 20260506214444 | 24 | 211 | 4.8 | 4.8 | 0.00 | 0.00 | 0.00 | 73 | 1009.4 |
| 20260506213942 | 24 | 164 | 3.2 | 8.0 | 0.00 | 0.00 | 0.00 | 74 | 1010.0 |
| 20260506213439 | 24 | 210 | 1.6 | 1.6 | 0.00 | 0.00 | 0.00 | 73 | 1009.7 |
| 20260506212936 | 23 | 208 | 6.4 | 8.0 | 0.00 | 0.00 | 0.00 | 72 | 1010.0 |
| 20260506212432 | 24 | 168 | 1.6 | 1.6 | 0.00 | 0.00 | 0.00 | 73 | 1010.1 |
| 20260506211932 | 25 | 218 | 1.6 | 1.6 | 0.00 | 0.00 | 0.00 | 69 | 1009.8 |
| 20260506211428 | 25 | 199 | 1.6 | 3.2 | 0.00 | 0.00 | 0.00 | 69 | 1009.2 |
| 20260506210926 | 25 | 166 | 1.6 | 4.8 | 0.00 | 0.00 | 0.00 | 68 | 1009.9 |
| 20260506210422 | 25 | 208 | 1.6 | 3.2 | 0.00 | 0.00 | 0.00 | 69 | 1009.8 |
| 20260506205919 | 25 | 207 | 1.6 | 1.6 | 0.00 | 0.00 | 0.00 | 70 | 1010.1 |
| 20260506205415 | 25 | 219 | 0.0 | 1.6 | 0.00 | 0.00 | 0.00 | 70 | 1010.3 |
| 20260506204912 | 25 | 200 | 4.8 | 4.8 | 0.00 | 0.00 | 0.00 | 69 | 1010.4 |
| 20260506204410 | 25 | 167 | 0.0 | 1.6 | 0.00 | 0.00 | 0.00 | 69 | 1010.5 |
| 20260506203907 | 25 | 170 | 3.2 | 4.8 | 0.00 | 0.00 | 0.00 | 68 | 1010.4 |
| 20260506203404 | 25 | 217 | 3.2 | 4.8 | 0.00 | 0.00 | 0.00 | 67 | 1010.5 |
| 20260506202901 | 25 | 222 | 1.6 | 1.6 | 0.00 | 0.00 | 0.00 | 67 | 1010.7 |
| 20260506202358 | 25 | 216 | 0.0 | 1.6 | 0.00 | 0.00 | 0.00 | 69 | 1010.5 |
| 20260506201854 | 25 | 257 | 1.6 | 1.6 | 0.00 | 0.00 | 0.00 | 69 | 1010.7 |
| 20260506201352 | 25 | 218 | 0.0 | 1.6 | 0.00 | 0.00 | 0.00 | 70 | 1010.8 |
| 20260506200848 | 24 | 197 | 3.2 | 3.2 | 0.00 | 0.00 | 0.00 | 69 | 1010.6 |
| 20260506200344 | 25 | 171 | 4.8 | 4.8 | 0.00 | 0.00 | 0.00 | 71 | 1010.8 |
| 20260506195840 | 25 | 175 | 4.8 | 8.0 | 0.00 | 0.00 | 0.00 | 68 | 1010.7 |
| 20260506195338 | 25 | 223 | 0.0 | 0.0 | 0.00 | 0.00 | 0.00 | 70 | 1011.0 |
| 20260506194835 | 25 | 177 | 4.8 | 8.0 | 0.00 | 0.00 | 0.00 | 70 | 1011.1 |
| 20260506194331 | 24 | 80 | 0.0 | 0.0 | 0.00 | 0.00 | 0.00 | 71 | 1011.1 |
| 20260506193829 | 25 | 158 | 3.2 | 3.2 | 0.00 | 0.00 | 0.00 | 71 | 1011.1 |
| 20260506193326 | 25 | 168 | 4.8 | 4.8 | 0.00 | 0.00 | 0.00 | 67 | 1011.4 |
| 20260506192822 | 25 | 318 | 1.6 | 3.2 | 0.00 | 0.00 | 0.00 | 67 | 1011.4 |
| 20260506192319 | 25 | 181 | 3.2 | 3.2 | 0.00 | 0.00 | 0.00 | 68 | 1011.4 |
| 20260506191816 | 25 | 177 | 0.0 | 1.6 | 0.00 | 0.00 | 0.00 | 68 | 1011.5 |
| 20260506191312 | 25 | 181 | 3.2 | 3.2 | 0.00 | 0.00 | 0.00 | 68 | 1011.7 |
| 20260506190809 | 25 | 281 | 1.6 | 1.6 | 0.00 | 0.00 | 0.00 | 66 | 1011.4 |
| 20260506190306 | 25 | 175 | 1.6 | 4.8 | 0.00 | 0.00 | 0.00 | 66 | 1011.8 |
| 20260506185803 | 25 | 161 | 1.6 | 1.6 | 0.00 | 0.00 | 0.00 | 68 | 1011.8 |
| 20260506185259 | 25 | 214 | 3.2 | 3.2 | 0.00 | 0.00 | 0.00 | 67 | 1011.8 |
| 20260506184756 | 25 | 180 | 4.8 | 8.0 | 0.00 | 0.00 | 0.00 | 68 | 1011.8 |
| 20260506184254 | 25 | 249 | 0.0 | 0.0 | 0.00 | 0.00 | 0.00 | 70 | 1011.7 |
| 20260506183751 | 25 | 207 | 3.2 | 4.8 | 0.00 | 0.00 | 0.00 | 67 | 1011.6 |
| 20260506183251 | 25 | 240 | 6.4 | 8.0 | 0.00 | 0.00 | 0.00 | 68 | 1011.9 |
| 20260506182749 | 25 | 230 | 0.0 | 0.0 | 0.00 | 0.00 | 0.00 | 67 | 1011.9 |
| 20260506182246 | 25 | 182 | 4.8 | 4.8 | 0.00 | 0.00 | 0.00 | 69 | 1012.0 |
| 20260506181743 | 25 | 180 | 3.2 | 3.2 | 0.00 | 0.00 | 0.00 | 67 | 1012.2 |
| 20260506181241 | 25 | 199 | 3.2 | 4.8 | 0.00 | 0.00 | 0.00 | 67 | 1012.4 |
| 20260506180738 | 25 | 173 | 3.2 | 3.2 | 0.00 | 0.00 | 0.00 | 67 | 1012.4 |
| 20260506180234 | 26 | 212 | 3.2 | 8.0 | 0.00 | 0.00 | 0.00 | 66 | 1012.6 |
| 20260506175730 | 26 | 263 | 1.6 | 1.6 | 0.00 | 0.00 | 0.00 | 64 | 1012.5 |
| 20260506175227 | 25 | 181 | 6.4 | 11.3 | 0.00 | 0.00 | 0.00 | 65 | 1012.5 |
| 20260506174725 | 25 | 168 | 3.2 | 4.8 | 0.00 | 0.00 | 0.00 | 66 | 1012.5 |
| 20260506174221 | 25 | 172 | 8.0 | 9.7 | 0.00 | 0.00 | 0.00 | 66 | 1012.5 |
| 20260506173719 | 25 | 180 | 4.8 | 8.0 | 0.00 | 0.00 | 0.00 | 67 | 1012.7 |
| 20260506173216 | 25 | 171 | 6.4 | 8.0 | 0.00 | 0.00 | 0.00 | 67 | 1012.4 |
| 20260506172713 | 25 | 169 | 6.4 | 12.9 | 0.00 | 0.00 | 0.00 | 66 | 1012.5 |
| 20260506172209 | 25 | 212 | 3.2 | 3.2 | 0.00 | 0.00 | 0.00 | 63 | 1012.7 |
| 20260506171707 | 25 | 207 | 6.4 | 9.7 | 0.00 | 0.00 | 0.00 | 67 | 1012.6 |
| 20260506171204 | 25 | 195 | 8.0 | 9.7 | 0.00 | 0.00 | 0.00 | 68 | 1012.6 |
| 20260506170702 | 24 | 226 | 3.2 | 3.2 | 0.00 | 0.00 | 0.00 | 69 | 1012.4 |
| 20260506170158 | 24 | 167 | 4.8 | 9.7 | 0.00 | 0.00 | 0.00 | 69 | 1012.7 |
| 20260506165657 | 25 | 169 | 8.0 | 11.3 | 0.00 | 0.00 | 0.00 | 68 | 1012.7 |
| 20260506165153 | 25 | 270 | 3.2 | 3.2 | 0.00 | 0.00 | 0.00 | 67 | 1012.8 |
| 20260506164650 | 24 | 210 | 8.0 | 11.3 | 0.00 | 0.00 | 0.00 | 68 | 1012.9 |
| 20260506164148 | 25 | 181 | 6.4 | 9.7 | 0.00 | 0.00 | 0.00 | 69 | 1013.1 |
| 20260506163644 | 24 | 207 | 11.3 | 12.9 | 0.00 | 0.00 | 0.00 | 70 | 1013.1 |
| 20260506163139 | 24 | 204 | 8.0 | 9.7 | 0.00 | 0.00 | 0.00 | 72 | 1013.3 |
| 20260506162635 | 23 | 206 | 1.6 | 3.2 | 0.00 | 0.00 | 0.00 | 72 | 1013.4 |
| 20260506162133 | 23 | 193 | 6.4 | 9.7 | 0.00 | 0.00 | 0.00 | 73 | 1013.4 |
| 20260506161630 | 23 | 181 | 6.4 | 9.7 | 0.00 | 0.00 | 0.00 | 74 | 1013.6 |
| 20260506161127 | 23 | 177 | 6.4 | 8.0 | 0.00 | 0.00 | 0.00 | 74 | 1013.7 |
| 20260506160624 | 23 | 176 | 4.8 | 8.0 | 0.00 | 0.00 | 0.00 | 74 | 1013.8 |
| 20260506160121 | 23 | 156 | 4.8 | 4.8 | 0.00 | 0.00 | 0.00 | 74 | 1014.1 |
| 20260506155620 | 23 | 177 | 3.2 | 3.2 | 0.00 | 0.00 | 0.00 | 74 | 1014.2 |
| 20260506155116 | 22 | 123 | 3.2 | 4.8 | 0.00 | 0.00 | 0.00 | 75 | 1014.2 |
| 20260506153219 | 22 | 170 | 3.2 | 3.2 | 0.00 | 0.00 | 0.00 | 76 | 1014.2 |
| 20260506152715 | 22 | 180 | 4.8 | 4.8 | 0.00 | 0.00 | 0.00 | 77 | 1014.2 |
| 20260506152213 | 22 | 155 | 6.4 | 8.0 | 0.00 | 0.00 | 0.00 | 78 | 1014.3 |